Home > Weather > Bramsche > Past weeks

Flag for Germany Past Weather in Bramsche, Lower Saxony, Germany — Yesterday and Last 2 Weeks

Now
68 °F

Partly sunny.


Feels Like: 68 °F
Forecast: 59 / 70 °F
Wind: 9 mph from South

Location: Muenster / Osnabrueck

Current Time: Jun 30, 2016 at 9:31:53 PM

Latest Report: Jun 30, 2016 at 8:50 PM


Visibility: N/A

Pressure: 29.89 "Hg

Humidity: 73%

Dew Point: 59 °F

Location of BramscheLocation

Past Weather in Bramsche — Graph

°F

Bramsche Temperature Yesterday

Maximum temperature yesterday: 70 °F (at 4:50 PM)
Minimum temperature yesterday: 57 °F (at 5:20 AM)
Average temperature yesterday: 63 °F

High & Low Weather Summary for the Past Weeks

 TemperatureHumidityPressure
High91 °F (Jun 23, 5:20 PM)100% (Jun 16, 5:20 AM)30.24 "Hg (Jun 16, 5:20 AM)
Low48 °F (Jun 20, 1:50 AM)43% (Jun 23, 3:50 PM)29.53 "Hg (Jun 15, 8:20 PM)
Average63 °F80%29.97 "Hg
* Reported Jun 15 8:20 PM — Jun 30 8:20 PM, Bramsche, Weather by CustomWeather, © 2016

Note: Actual official high and low records may vary slightly from our data, if they occured in-between our weather recording intervals... More about our weather records

Advertising

Bramsche Weather History for the Previous 24 Hours

Scroll right to see more
 ConditionsComfort  
Time TempWeatherWind HumidityBarometerVisibility
8:20 PM
Thu, Jun 30
68 °FPartly sunny.7 mph73%29.89 "HgN/A
7:50 PM68 °FPartly sunny.8 mph69%29.89 "HgN/A
7:20 PM68 °FLight rain. Partly sunny.10 mph69%29.89 "HgN/A
6:50 PM68 °FPartly sunny.10 mph69%29.89 "HgN/A
6:20 PM68 °FPartly sunny.12 mph69%29.89 "HgN/A
5:50 PM66 °FPartly sunny.8 mph73%29.89 "HgN/A
5:20 PM66 °FLight rain. Partly sunny.9 mph73%29.89 "HgN/A
4:50 PM66 °FLight rain. Broken clouds.13 mph68%29.89 "HgN/A
4:20 PM66 °FBroken clouds.10 mph68%29.89 "HgN/A
3:50 PM66 °FLight rain. Broken clouds.9 mph73%29.89 "HgN/A
3:20 PM66 °FBroken clouds.10 mph68%29.89 "HgN/A
2:50 PM66 °FBroken clouds.13 mph64%29.89 "HgN/A
2:20 PM66 °FLight rain. Broken clouds.12 mph68%29.89 "HgN/A
1:50 PM66 °FBroken clouds.13 mph64%29.89 "HgN/A
1:20 PM66 °FBroken clouds.13 mph64%29.89 "HgN/A
12:50 PM64 °FLight rain. Broken clouds.13 mph73%29.89 "HgN/A
12:20 PM64 °FBroken clouds.12 mph73%29.89 "HgN/A
11:50 AM63 °FPartly sunny.10 mph77%29.89 "HgN/A
11:20 AM64 °FPartly sunny.13 mph73%29.89 "HgN/A
10:50 AM63 °FPartly sunny.12 mph77%29.89 "HgN/A
10:20 AM63 °FPartly sunny.12 mph77%29.89 "HgN/A
9:50 AM63 °FBroken clouds.12 mph77%29.86 "HgN/A
9:20 AM61 °FLight rain. Broken clouds.13 mph83%29.86 "HgN/A
8:50 AM61 °FBroken clouds.9 mph83%29.86 "HgN/A
8:20 AM61 °FLight rain. Partly sunny.8 mph83%29.86 "HgN/A
7:50 AM61 °FPartly sunny.7 mph77%29.86 "HgN/A
7:20 AM61 °FPartly sunny.7 mph77%29.86 "HgN/A
6:50 AM61 °FPartly sunny.6 mph77%29.86 "HgN/A
6:20 AM61 °FPartly sunny.6 mph77%29.86 "HgN/A
5:50 AM63 °FPassing clouds.7 mph73%29.83 "HgN/A
5:20 AM63 °FPassing clouds.8 mph73%29.83 "HgN/A
4:50 AM63 °FPassing clouds.8 mph73%29.83 "HgN/A
4:20 AM61 °FPassing clouds.6 mph72%29.83 "HgN/A
3:50 AM61 °FClear.6 mph72%29.83 "Hg10 mi
3:20 AM61 °FClear.6 mph77%29.83 "Hg10 mi
2:50 AM61 °FClear.5 mph77%29.83 "Hg10 mi
2:20 AM61 °FClear.5 mph77%29.83 "Hg10 mi
1:20 AM61 °FLight rain. Clear.5 mph77%29.86 "HgN/A
12:50 AM59 °FClear.3 mph82%29.86 "Hg10 mi
12:20 AM61 °FPassing clouds.3 mph77%29.86 "HgN/A
11:50 PM
Wed, Jun 29
61 °FClear.3 mph77%29.86 "Hg10 mi
11:20 PM61 °FClear.1 mph77%29.86 "Hg10 mi
10:50 PM63 °FPassing clouds.5 mph68%29.89 "HgN/A
10:20 PM64 °FPassing clouds.5 mph64%29.89 "HgN/A
9:50 PM64 °FPassing clouds.3 mph64%29.89 "HgN/A
9:20 PM64 °FPassing clouds.6 mph60%29.89 "HgN/A
Weather by CustomWeather, © 2016

See weather overviewHow to use our weather pages